Time,TemperatureF,DewpointF,PressureIn,WindDirection,WindDirectionDegrees,WindSpeedMPH,WindSpeedGustMPH,Humidity,HourlyPrecipIn,Conditions,Clouds,dailyrainin,SolarRadiationWatts/m^2,SoftwareType,DateUTC
2013-04-29 00:02:00,52.2,49.4,29.77,SE,128,0.0,0.0,90,0.00,,SKC,0.00,0.00,VWS V14.01,2013-04-29 05:02:00,
2013-04-29 00:07:00,52.1,49.3,29.77,SE,128,0.0,0.0,90,0.00,,SKC,0.00,0.00,VWS V14.01,2013-04-29 05:07:00,
2013-04-29 00:12:00,52.0,49.2,29.77,SE,128,0.0,0.0,90,0.00,,SKC,0.00,0.00,VWS V14.01,2013-04-29 05:12:00,
2013-04-29 00:17:00,51.9,49.1,29.77,SE,128,0.0,1.0,90,0.00,,SKC,0.00,0.00,VWS V14.01,2013-04-29 05:17:00,
2013-04-29 00:22:00,51.5,48.7,29.77,SE,128,0.0,0.0,90,0.00,,SKC,0.00,0.00,VWS V14.01,2013-04-29 05:22:00,
2013-04-29 00:27:00,51.4,48.6,29.77,SE,128,0.0,0.0,90,0.00,,SKC,0.00,0.00,VWS V14.01,2013-04-29 05:27:00,
2013-04-29 00:32:00,51.5,49.0,29.77,SE,128,1.0,2.0,91,0.00,,SKC,0.00,0.00,VWS V14.01,2013-04-29 05:32:00,
2013-04-29 00:37:00,51.4,48.9,29.77,SE,128,0.0,2.0,91,0.00,,SKC,0.00,0.00,VWS V14.01,2013-04-29 05:37:00,
2013-04-29 00:42:00,51.0,48.2,29.77,SE,128,0.0,0.0,90,0.00,,SKC,0.00,0.00,VWS V14.01,2013-04-29 05:42:00,
2013-04-29 00:47:00,50.8,48.3,29.77,SE,128,0.0,0.0,91,0.00,,SKC,0.00,0.00,VWS V14.01,2013-04-29 05:47:00,
2013-04-29 00:52:00,50.9,48.7,29.77,SE,128,0.0,0.0,92,0.00,,SKC,0.00,0.00,VWS V14.01,2013-04-29 05:52:00,
2013-04-29 00:57:00,50.9,48.7,29.77,SE,128,0.0,0.0,92,0.00,,SKC,0.00,0.00,VWS V14.01,2013-04-29 05:57:00,
2013-04-29 01:02:00,50.6,48.1,29.77,SE,128,0.0,0.0,91,0.00,,SKC,0.00,0.00,VWS V14.01,2013-04-29 06:02:00,
2013-04-29 01:07:00,50.3,47.8,29.77,SE,128,0.0,0.0,91,0.00,,SKC,0.00,0.00,VWS V14.01,2013-04-29 06:07:00,
2013-04-29 01:12:00,50.4,48.2,29.76,SE,128,0.0,0.0,92,0.00,,SKC,0.00,0.00,VWS V14.01,2013-04-29 06:12:00,
2013-04-29 01:17:00,50.6,48.4,29.76,SE,128,0.0,0.0,92,0.00,,SKC,0.00,0.00,VWS V14.01,2013-04-29 06:17:00,
2013-04-29 01:22:00,50.4,48.2,29.77,SE,128,0.0,0.0,92,0.00,,SKC,0.00,0.00,VWS V14.01,2013-04-29 06:22:00,
2013-04-29 01:27:00,50.2,48.0,29.77,SE,128,1.0,2.0,92,0.00,,SKC,0.00,0.00,VWS V14.01,2013-04-29 06:27:00,
2013-04-29 01:32:00,49.9,47.7,29.77,SE,128,0.0,1.0,92,0.00,,SKC,0.00,0.00,VWS V14.01,2013-04-29 06:32:00,
2013-04-29 01:37:00,49.7,47.5,29.77,SE,128,2.0,2.0,92,0.00,,SKC,0.00,0.00,VWS V14.01,2013-04-29 06:37:00,
2013-04-29 01:42:00,49.7,47.8,29.76,SE,128,0.0,0.0,93,0.00,,SKC,0.00,0.00,VWS V14.01,2013-04-29 06:42:00,
2013-04-29 01:47:00,49.9,48.2,29.76,SE,128,1.0,2.0,94,0.00,,SKC,0.00,0.00,VWS V14.01,2013-04-29 06:47:00,
2013-04-29 01:52:00,50.0,48.3,29.76,SE,128,0.0,0.0,94,0.00,,SKC,0.00,0.00,VWS V14.01,2013-04-29 06:52:00,
2013-04-29 01:57:00,49.9,48.2,29.76,SE,128,0.0,1.0,94,0.00,,SKC,0.00,0.00,VWS V14.01,2013-04-29 06:57:00,
2013-04-29 02:02:00,49.9,48.2,29.76,SE,128,0.0,0.0,94,0.00,,SKC,0.00,0.00,VWS V14.01,2013-04-29 07:02:00,
2013-04-29 02:07:00,49.8,48.2,29.76,SE,128,0.0,0.0,94,0.00,,SKC,0.00,0.00,VWS V14.01,2013-04-29 07:07:00,
2013-04-29 02:12:00,49.5,47.8,29.76,SE,128,0.0,0.0,94,0.00,,SKC,0.00,0.00,VWS V14.01,2013-04-29 07:12:00,
2013-04-29 02:17:00,49.1,47.5,29.76,SE,128,0.0,0.0,94,0.00,,SKC,0.00,0.00,VWS V14.01,2013-04-29 07:17:00,
2013-04-29 02:22:00,49.1,47.5,29.75,SE,128,0.0,0.0,94,0.00,,SKC,0.00,0.00,VWS V14.01,2013-04-29 07:22:00,
2013-04-29 02:27:00,49.4,48.0,29.75,SE,128,0.0,0.0,95,0.00,,SKC,0.00,0.00,VWS V14.01,2013-04-29 07:27:00,
2013-04-29 02:32:00,49.4,48.0,29.75,SE,128,0.0,0.0,95,0.00,,SKC,0.00,0.00,VWS V14.01,2013-04-29 07:32:00,
2013-04-29 02:37:00,49.4,48.0,29.75,SE,128,0.0,0.0,95,0.00,,SKC,0.00,0.00,VWS V14.01,2013-04-29 07:37:00,
2013-04-29 02:42:00,49.2,47.5,29.75,SE,128,0.0,0.0,94,0.00,,SKC,0.00,0.00,VWS V14.01,2013-04-29 07:42:00,
2013-04-29 02:47:00,49.1,47.7,29.75,SE,128,0.0,0.0,95,0.00,,SKC,0.00,0.00,VWS V14.01,2013-04-29 07:47:00,
2013-04-29 02:52:00,49.0,47.6,29.76,SE,128,0.0,0.0,95,0.00,,SKC,0.00,0.00,VWS V14.01,2013-04-29 07:52:00,
2013-04-29 02:57:00,49.0,47.6,29.75,SE,128,0.0,0.0,95,0.00,,SKC,0.00,0.00,VWS V14.01,2013-04-29 07:57:00,
2013-04-29 03:02:00,48.9,47.5,29.75,SE,128,0.0,0.0,95,0.00,,SKC,0.00,0.00,VWS V14.01,2013-04-29 08:02:00,
2013-04-29 03:07:00,48.8,47.4,29.75,SE,128,0.0,0.0,95,0.00,,SKC,0.00,0.00,VWS V14.01,2013-04-29 08:07:00,
2013-04-29 03:12:00,48.5,46.9,29.75,SE,128,0.0,0.0,94,0.00,,SKC,0.00,0.00,VWS V14.01,2013-04-29 08:12:00,
2013-04-29 03:17:00,48.1,46.7,29.75,SE,128,0.0,0.0,95,0.00,,SKC,0.00,0.00,VWS V14.01,2013-04-29 08:17:00,
2013-04-29 03:22:00,48.2,46.8,29.75,SE,128,0.0,0.0,95,0.00,,SKC,0.00,0.00,VWS V14.01,2013-04-29 08:22:00,
2013-04-29 03:27:00,48.4,47.0,29.75,SE,128,0.0,0.0,95,0.00,,SKC,0.00,0.00,VWS V14.01,2013-04-29 08:27:00,
2013-04-29 03:32:00,48.4,47.0,29.75,SE,128,0.0,0.0,95,0.00,,SKC,0.00,0.00,VWS V14.01,2013-04-29 08:32:00,
2013-04-29 03:37:00,48.7,47.6,29.75,SE,128,0.0,0.0,96,0.00,,SKC,0.00,0.00,VWS V14.01,2013-04-29 08:37:00,
2013-04-29 03:42:00,48.9,47.8,29.75,SE,128,0.0,0.0,96,0.00,,SKC,0.00,0.00,VWS V14.01,2013-04-29 08:42:00,
2013-04-29 03:47:00,48.9,47.8,29.75,SE,128,0.0,1.0,96,0.00,,SKC,0.00,0.00,VWS V14.01,2013-04-29 08:47:00,
2013-04-29 03:53:00,48.5,47.1,29.75,SE,128,0.0,0.0,95,0.00,,SKC,0.00,0.00,VWS V14.01,2013-04-29 08:53:00,
2013-04-29 03:58:00,47.7,46.3,29.75,SE,128,0.0,0.0,95,0.00,,SKC,0.00,0.00,VWS V14.01,2013-04-29 08:58:00,
2013-04-29 04:03:00,47.1,45.7,29.75,SE,128,0.0,0.0,95,0.00,,SKC,0.00,0.00,VWS V14.01,2013-04-29 09:03:00,
2013-04-29 04:08:00,47.2,46.1,29.75,SE,128,0.0,0.0,96,0.00,,SKC,0.00,0.00,VWS V14.01,2013-04-29 09:08:00,
2013-04-29 04:13:00,48.2,47.4,29.75,SE,128,2.0,5.0,97,0.00,,SKC,0.00,0.00,VWS V14.01,2013-04-29 09:13:00,
2013-04-29 04:18:00,48.7,47.9,29.76,SE,128,4.0,5.0,97,0.00,,SKC,0.00,0.00,VWS V14.01,2013-04-29 09:18:00,
2013-04-29 04:23:00,48.7,47.6,29.76,SE,128,4.0,4.0,96,0.00,,SKC,0.00,0.00,VWS V14.01,2013-04-29 09:23:00,
2013-04-29 04:28:00,48.2,46.8,29.76,SE,128,0.0,4.0,95,0.00,,SKC,0.00,0.00,VWS V14.01,2013-04-29 09:28:00,
2013-04-29 04:33:00,47.4,46.0,29.76,SE,128,0.0,0.0,95,0.00,,SKC,0.00,0.00,VWS V14.01,2013-04-29 09:33:00,
2013-04-29 04:38:00,47.6,46.5,29.76,SE,128,1.0,4.0,96,0.00,,SKC,0.00,0.00,VWS V14.01,2013-04-29 09:38:00,
2013-04-29 04:43:00,48.3,47.2,29.77,SE,138,2.0,5.0,96,0.00,,SKC,0.00,0.00,VWS V14.01,2013-04-29 09:43:00,
2013-04-29 04:48:00,49.1,48.3,29.77,SSE,155,5.0,6.0,97,0.00,,SKC,0.00,0.00,VWS V14.01,2013-04-29 09:48:00,
2013-04-29 04:53:00,49.6,48.8,29.77,SSW,201,5.0,7.0,97,0.00,,SKC,0.00,0.00,VWS V14.01,2013-04-29 09:53:00,
2013-04-29 04:58:00,49.9,48.8,29.77,SSW,209,5.0,7.0,96,0.00,,SKC,0.00,0.00,VWS V14.01,2013-04-29 09:58:00,
2013-04-29 05:03:00,49.9,48.8,29.77,SSW,210,4.0,6.0,96,0.00,,SKC,0.00,0.00,VWS V14.01,2013-04-29 10:03:00,
2013-04-29 05:08:00,50.1,49.0,29.77,SW,215,5.0,7.0,96,0.00,,SKC,0.00,0.00,VWS V14.01,2013-04-29 10:08:00,
2013-04-29 05:13:00,50.1,49.0,29.77,SW,216,5.0,6.0,96,0.00,,SKC,0.00,0.00,VWS V14.01,2013-04-29 10:13:00,
2013-04-29 05:18:00,50.4,49.3,29.77,SW,232,5.0,10.0,96,0.00,,SKC,0.00,0.00,VWS V14.01,2013-04-29 10:18:00,
2013-04-29 05:23:00,50.7,49.6,29.78,SW,233,4.0,8.0,96,0.00,,SKC,0.00,0.00,VWS V14.01,2013-04-29 10:23:00,
2013-04-29 05:28:00,51.0,49.9,29.78,SW,234,5.0,8.0,96,0.00,,SKC,0.00,0.00,VWS V14.01,2013-04-29 10:28:00,
2013-04-29 05:33:00,51.1,49.7,29.78,SW,236,3.0,6.0,95,0.00,,SKC,0.00,0.00,VWS V14.01,2013-04-29 10:33:00,
2013-04-29 05:38:00,51.3,49.9,29.79,WSW,238,5.0,7.0,95,0.00,,SKC,0.00,0.00,VWS V14.01,2013-04-29 10:38:00,
2013-04-29 05:43:00,51.5,50.1,29.78,WSW,238,4.0,6.0,95,0.00,,SKC,0.00,0.00,VWS V14.01,2013-04-29 10:43:00,
2013-04-29 05:48:00,51.4,49.7,29.78,SW,236,4.0,7.0,94,0.00,,SKC,0.00,0.00,VWS V14.01,2013-04-29 10:48:00,
2013-04-29 05:53:00,51.2,49.5,29.79,SW,236,5.0,5.0,94,0.00,,SKC,0.00,0.00,VWS V14.01,2013-04-29 10:53:00,
2013-04-29 05:58:00,51.2,49.5,29.78,SW,235,4.0,7.0,94,0.00,,SKC,0.00,7.00,VWS V14.01,2013-04-29 10:58:00,
2013-04-29 06:03:00,51.2,49.5,29.79,SW,235,5.0,5.0,94,0.00,,SKC,0.00,11.00,VWS V14.01,2013-04-29 11:03:00,
2013-04-29 06:08:00,51.3,49.6,29.79,SW,235,4.0,6.0,94,0.00,,SKC,0.00,14.00,VWS V14.01,2013-04-29 11:08:00,
2013-04-29 06:13:00,51.4,49.7,29.79,SW,232,4.0,7.0,94,0.00,,SKC,0.00,21.00,VWS V14.01,2013-04-29 11:13:00,
2013-04-29 06:18:00,51.4,49.7,29.79,SW,232,4.0,7.0,94,0.00,,SKC,0.00,26.00,VWS V14.01,2013-04-29 11:18:00,
2013-04-29 06:23:00,51.3,49.3,29.79,SW,231,5.0,5.0,93,0.00,,SKC,0.00,35.00,VWS V14.01,2013-04-29 11:23:00,
2013-04-29 06:28:00,51.4,49.5,29.79,SW,231,4.0,5.0,93,0.00,,SKC,0.00,47.00,VWS V14.01,2013-04-29 11:28:00,
2013-04-29 06:33:00,51.5,49.5,29.79,SW,231,4.0,5.0,93,0.00,,SKC,0.00,60.00,VWS V14.01,2013-04-29 11:33:00,
2013-04-29 06:38:00,51.6,49.7,29.79,SW,231,5.0,5.0,93,0.00,,SKC,0.00,76.00,VWS V14.01,2013-04-29 11:38:00,
2013-04-29 06:43:00,51.8,49.8,29.79,SW,227,5.0,6.0,93,0.00,,SKC,0.00,90.00,VWS V14.01,2013-04-29 11:43:00,
2013-04-29 06:48:00,51.9,49.9,29.79,SW,227,5.0,6.0,93,0.00,,SKC,0.00,111.00,VWS V14.01,2013-04-29 11:48:00,
2013-04-29 06:53:00,52.0,50.0,29.79,SW,227,4.0,5.0,93,0.00,,SKC,0.00,128.00,VWS V14.01,2013-04-29 11:53:00,
2013-04-29 06:58:00,52.1,50.1,29.80,SW,227,4.0,6.0,93,0.00,,SKC,0.00,151.00,VWS V14.01,2013-04-29 11:58:00,
2013-04-29 07:03:00,52.4,50.4,29.80,SW,227,3.0,6.0,93,0.00,,SKC,0.00,167.00,VWS V14.01,2013-04-29 12:03:00,
2013-04-29 07:08:00,52.7,50.7,29.80,SW,226,6.0,8.0,93,0.00,,SKC,0.00,185.00,VWS V14.01,2013-04-29 12:08:00,
2013-04-29 07:13:00,53.1,51.1,29.80,SW,223,7.0,8.0,93,0.00,,SKC,0.00,193.00,VWS V14.01,2013-04-29 12:13:00,
2013-04-29 07:18:00,53.3,51.0,29.80,SW,223,7.0,9.0,92,0.00,,SKC,0.00,172.00,VWS V14.01,2013-04-29 12:18:00,
2013-04-29 07:23:00,53.6,51.0,29.80,SW,229,5.0,8.0,91,0.00,,SKC,0.00,183.00,VWS V14.01,2013-04-29 12:23:00,
2013-04-29 07:28:00,53.9,51.3,29.80,SW,223,5.0,9.0,91,0.00,,SKC,0.00,232.00,VWS V14.01,2013-04-29 12:28:00,
2013-04-29 07:33:00,54.2,51.6,29.80,SW,225,6.0,8.0,91,0.00,,SKC,0.00,241.00,VWS V14.01,2013-04-29 12:33:00,
2013-04-29 07:38:00,54.6,52.0,29.81,SW,231,6.0,9.0,91,0.00,,SKC,0.00,267.00,VWS V14.01,2013-04-29 12:38:00,
2013-04-29 07:43:00,54.9,52.0,29.80,SW,221,4.0,8.0,90,0.00,,SKC,0.00,241.00,VWS V14.01,2013-04-29 12:43:00,
2013-04-29 07:48:00,55.3,52.4,29.80,SW,234,6.0,9.0,90,0.00,,SKC,0.00,278.00,VWS V14.01,2013-04-29 12:48:00,
2013-04-29 07:53:00,55.7,52.5,29.80,SW,217,7.0,9.0,89,0.00,,SKC,0.00,272.00,VWS V14.01,2013-04-29 12:53:00,
2013-04-29 07:58:00,56.0,52.5,29.80,SW,219,7.0,10.0,88,0.00,,SKC,0.00,274.00,VWS V14.01,2013-04-29 12:58:00,
2013-04-29 08:03:00,56.3,52.8,29.80,SW,214,9.0,11.0,88,0.00,,SKC,0.00,241.00,VWS V14.01,2013-04-29 13:03:00,
2013-04-29 08:08:00,56.6,52.8,29.80,SW,228,6.0,11.0,87,0.00,,SKC,0.00,209.00,VWS V14.01,2013-04-29 13:08:00,
2013-04-29 08:13:00,56.7,52.6,29.80,SW,221,8.0,10.0,86,0.00,,SKC,0.00,211.00,VWS V14.01,2013-04-29 13:13:00,
2013-04-29 08:18:00,56.9,52.8,29.80,SW,216,8.0,10.0,86,0.00,,SKC,0.00,246.00,VWS V14.01,2013-04-29 13:18:00,
2013-04-29 08:23:00,57.1,52.6,29.80,SW,215,8.0,10.0,85,0.00,,SKC,0.00,278.00,VWS V14.01,2013-04-29 13:23:00,
2013-04-29 08:28:00,57.5,53.0,29.80,SSW,212,7.0,10.0,85,0.00,,SKC,0.00,294.00,VWS V14.01,2013-04-29 13:28:00,
2013-04-29 08:33:00,57.8,53.3,29.80,SW,219,5.0,8.0,85,0.00,,SKC,0.00,285.00,VWS V14.01,2013-04-29 13:33:00,
2013-04-29 08:38:00,58.1,53.3,29.80,SSW,204,5.0,10.0,84,0.00,,SKC,0.00,237.00,VWS V14.01,2013-04-29 13:38:00,
2013-04-29 08:43:00,58.4,53.6,29.80,SSW,213,6.0,10.0,84,0.00,,SKC,0.00,193.00,VWS V14.01,2013-04-29 13:43:00,
2013-04-29 08:48:00,58.2,53.1,29.80,SW,229,8.0,12.0,83,0.00,,SKC,0.00,197.00,VWS V14.01,2013-04-29 13:48:00,
2013-04-29 08:53:00,58.3,53.2,29.80,SSW,213,10.0,11.0,83,0.00,,SKC,0.00,243.00,VWS V14.01,2013-04-29 13:53:00,
2013-04-29 08:58:00,58.5,53.4,29.80,SSW,213,6.0,12.0,83,0.00,,SKC,0.00,329.00,VWS V14.01,2013-04-29 13:58:00,
2013-04-29 09:03:00,58.7,53.6,29.80,SW,222,4.0,10.0,83,0.00,,SKC,0.00,264.00,VWS V14.01,2013-04-29 14:03:00,
2013-04-29 09:08:00,59.0,53.5,29.80,SSW,213,9.0,12.0,82,0.00,,SKC,0.00,330.00,VWS V14.01,2013-04-29 14:08:00,
2013-04-29 09:13:00,59.3,53.8,29.80,SW,225,3.0,12.0,82,0.00,,SKC,0.00,410.00,VWS V14.01,2013-04-29 14:13:00,
2013-04-29 09:19:00,59.9,54.1,29.80,SSW,211,5.0,12.0,81,0.00,,SKC,0.00,485.00,VWS V14.01,2013-04-29 14:19:00,
2013-04-29 09:24:00,60.4,54.2,29.79,SSW,210,10.0,10.0,80,0.00,,SKC,0.00,466.00,VWS V14.01,2013-04-29 14:24:00,
2013-04-29 09:29:00,60.8,54.3,29.79,SW,215,6.0,10.0,79,0.00,,SKC,0.00,550.00,VWS V14.01,2013-04-29 14:29:00,
2013-04-29 09:34:00,61.2,54.6,29.79,South,183,4.0,10.0,79,0.00,,SKC,0.00,417.00,VWS V14.01,2013-04-29 14:34:00,
2013-04-29 09:39:00,61.4,54.1,29.78,SSW,208,8.0,12.0,77,0.00,,SKC,0.00,420.00,VWS V14.01,2013-04-29 14:39:00,
2013-04-29 09:44:00,61.6,54.0,29.78,SSW,201,6.0,12.0,76,0.00,,SKC,0.00,457.00,VWS V14.01,2013-04-29 14:44:00,
2013-04-29 09:49:00,61.7,54.4,29.78,SW,217,5.0,13.0,77,0.00,,SKC,0.00,506.00,VWS V14.01,2013-04-29 14:49:00,
2013-04-29 09:54:00,62.0,54.4,29.78,SW,214,6.0,10.0,76,0.00,,SKC,0.00,471.00,VWS V14.01,2013-04-29 14:54:00,
2013-04-29 09:59:00,62.2,54.5,29.79,South,184,5.0,11.0,76,0.00,,SKC,0.00,420.00,VWS V14.01,2013-04-29 14:59:00,
2013-04-29 10:04:00,62.3,53.9,29.79,SSW,213,11.0,13.0,74,0.00,,SKC,0.00,360.00,VWS V14.01,2013-04-29 15:04:00,
2013-04-29 10:09:00,62.2,53.5,29.78,SSW,196,10.0,16.0,73,0.00,,SKC,0.00,563.00,VWS V14.01,2013-04-29 15:09:00,
2013-04-29 10:14:00,62.7,54.3,29.78,SSW,205,9.0,13.0,74,0.00,,SKC,0.00,582.00,VWS V14.01,2013-04-29 15:14:00,
2013-04-29 10:19:00,63.1,54.3,29.78,South,189,8.0,13.0,73,0.00,,SKC,0.00,643.00,VWS V14.01,2013-04-29 15:19:00,
2013-04-29 10:24:00,63.4,53.8,29.78,SW,225,8.0,16.0,71,0.00,,SKC,0.00,561.00,VWS V14.01,2013-04-29 15:24:00,
2013-04-29 10:29:00,63.3,53.8,29.78,SSW,213,11.0,16.0,71,0.00,,SKC,0.00,519.00,VWS V14.01,2013-04-29 15:29:00,
2013-04-29 10:34:00,63.2,53.7,29.78,South,190,7.0,14.0,71,0.00,,SKC,0.00,563.00,VWS V14.01,2013-04-29 15:34:00,
2013-04-29 10:39:00,63.5,53.5,29.78,South,181,8.0,15.0,70,0.00,,SKC,0.00,531.00,VWS V14.01,2013-04-29 15:39:00,
2013-04-29 10:44:00,63.8,53.0,29.78,SSW,195,12.0,18.0,68,0.00,,SKC,0.00,638.00,VWS V14.01,2013-04-29 15:44:00,
2013-04-29 10:49:00,64.0,52.8,29.77,SSW,213,11.0,18.0,67,0.00,,SKC,0.00,512.00,VWS V14.01,2013-04-29 15:49:00,
2013-04-29 10:54:00,63.9,52.7,29.77,SSW,202,11.0,14.0,67,0.00,,SKC,0.00,526.00,VWS V14.01,2013-04-29 15:54:00,
2013-04-29 10:59:00,64.5,52.9,29.77,SSW,208,14.0,14.0,66,0.00,,SKC,0.00,622.00,VWS V14.01,2013-04-29 15:59:00,
2013-04-29 11:04:00,64.9,53.7,29.77,South,178,8.0,12.0,67,0.00,,SKC,0.00,624.00,VWS V14.01,2013-04-29 16:04:00,
2013-04-29 11:09:00,65.3,52.8,29.77,SSW,205,13.0,14.0,64,0.00,,SKC,0.00,610.00,VWS V14.01,2013-04-29 16:09:00,
2013-04-29 11:14:00,65.5,53.4,29.77,SSW,196,6.0,13.0,65,0.00,,SKC,0.00,679.00,VWS V14.01,2013-04-29 16:14:00,
2013-04-29 11:19:00,65.7,52.8,29.77,SSW,212,14.0,16.0,63,0.00,,SKC,0.00,671.00,VWS V14.01,2013-04-29 16:19:00,
2013-04-29 11:24:00,66.2,53.7,29.77,SW,217,12.0,16.0,64,0.00,,SKC,0.00,605.00,VWS V14.01,2013-04-29 16:24:00,
2013-04-29 11:29:00,66.5,53.1,29.77,SSW,213,12.0,16.0,62,0.00,,SKC,0.00,686.00,VWS V14.01,2013-04-29 16:29:00,
2013-04-29 11:34:00,66.7,53.7,29.77,SSW,202,11.0,13.0,63,0.00,,SKC,0.00,715.00,VWS V14.01,2013-04-29 16:34:00,
2013-04-29 11:39:00,67.4,53.9,29.77,SSW,192,7.0,13.0,62,0.00,,SKC,0.00,680.00,VWS V14.01,2013-04-29 16:39:00,
2013-04-29 11:44:00,67.5,53.6,29.76,SSE,168,6.0,16.0,61,0.00,,SKC,0.00,584.00,VWS V14.01,2013-04-29 16:44:00,
2013-04-29 11:49:00,67.7,53.3,29.76,SSW,206,4.0,16.0,60,0.00,,SKC,0.00,601.00,VWS V14.01,2013-04-29 16:49:00,
2013-04-29 11:54:00,67.9,53.1,29.76,South,187,10.0,15.0,59,0.00,,SKC,0.00,601.00,VWS V14.01,2013-04-29 16:54:00,
2013-04-29 11:59:00,68.4,54.4,29.76,SSW,200,7.0,15.0,61,0.00,,SKC,0.00,589.00,VWS V14.01,2013-04-29 16:59:00,
2013-04-29 12:04:00,68.1,52.3,29.76,SSW,207,13.0,19.0,57,0.00,,SKC,0.00,589.00,VWS V14.01,2013-04-29 17:04:00,
2013-04-29 12:09:00,68.3,52.5,29.76,SSW,208,15.0,19.0,57,0.00,,SKC,0.00,483.00,VWS V14.01,2013-04-29 17:09:00,
2013-04-29 12:14:00,68.2,51.9,29.77,SSW,202,17.0,19.0,56,0.00,,SKC,0.00,452.00,VWS V14.01,2013-04-29 17:14:00,
2013-04-29 12:19:00,68.1,51.8,29.77,SSW,206,17.0,19.0,56,0.00,,SKC,0.00,536.00,VWS V14.01,2013-04-29 17:19:00,
2013-04-29 12:24:00,68.5,53.2,29.76,SW,215,7.0,15.0,58,0.00,,SKC,0.00,659.00,VWS V14.01,2013-04-29 17:24:00,
2013-04-29 12:29:00,68.5,51.7,29.76,SW,216,18.0,20.0,55,0.00,,SKC,0.00,656.00,VWS V14.01,2013-04-29 17:29:00,
2013-04-29 12:34:00,68.6,51.8,29.75,WSW,241,10.0,18.0,55,0.00,,SKC,0.00,548.00,VWS V14.01,2013-04-29 17:34:00,
2013-04-29 12:39:00,69.2,52.8,29.75,SSW,209,11.0,18.0,56,0.00,,SKC,0.00,628.00,VWS V14.01,2013-04-29 17:39:00,
2013-04-29 12:44:00,69.4,52.5,29.75,SW,220,14.0,16.0,55,0.00,,SKC,0.00,715.00,VWS V14.01,2013-04-29 17:44:00,
2013-04-29 12:49:00,69.7,51.3,29.75,SSW,202,11.0,20.0,52,0.00,,SKC,0.00,686.00,VWS V14.01,2013-04-29 17:49:00,
2013-04-29 12:54:00,69.8,52.4,29.75,SSW,204,17.0,17.0,54,0.00,,SKC,0.00,621.00,VWS V14.01,2013-04-29 17:54:00,
2013-04-29 12:59:00,69.6,51.7,29.75,SW,224,11.0,19.0,53,0.00,,SKC,0.00,636.00,VWS V14.01,2013-04-29 17:59:00,
2013-04-29 13:04:00,69.5,52.2,29.75,SSW,211,10.0,18.0,54,0.00,,SKC,0.00,643.00,VWS V14.01,2013-04-29 18:04:00,
2013-04-29 13:10:00,69.9,52.5,29.75,SSW,207,16.0,18.0,54,0.00,,SKC,0.00,761.00,VWS V14.01,2013-04-29 18:10:00,
2013-04-29 13:14:00,70.0,52.6,29.75,SSW,193,16.0,18.0,54,0.00,,SKC,0.00,531.00,VWS V14.01,2013-04-29 18:14:00,
2013-04-29 13:19:00,70.0,52.6,29.75,South,187,8.0,18.0,54,0.00,,SKC,0.00,471.00,VWS V14.01,2013-04-29 18:19:00,
2013-04-29 13:24:00,70.0,53.1,29.75,SSW,200,10.0,16.0,55,0.00,,SKC,0.00,439.00,VWS V14.01,2013-04-29 18:24:00,
2013-04-29 13:29:00,70.1,53.2,29.75,South,184,9.0,16.0,55,0.00,,SKC,0.00,431.00,VWS V14.01,2013-04-29 18:29:00,
2013-04-29 13:35:00,70.1,53.2,29.75,SSE,164,10.0,16.0,55,0.00,,SKC,0.00,316.00,VWS V14.01,2013-04-29 18:35:00,
2013-04-29 13:40:00,69.5,52.6,29.75,South,177,7.0,19.0,55,0.00,,SKC,0.00,264.00,VWS V14.01,2013-04-29 18:40:00,
2013-04-29 13:45:00,69.6,52.7,29.75,SSW,200,15.0,15.0,55,0.00,,SKC,0.00,197.00,VWS V14.01,2013-04-29 18:45:00,
2013-04-29 13:50:00,68.8,52.0,29.75,South,191,11.0,19.0,55,0.00,,SKC,0.00,148.00,VWS V14.01,2013-04-29 18:50:00,
2013-04-29 13:55:00,68.7,51.9,29.75,South,184,11.0,13.0,55,0.00,,SKC,0.00,163.00,VWS V14.01,2013-04-29 18:55:00,
2013-04-29 14:00:00,68.6,52.3,29.75,SSW,211,14.0,14.0,56,0.00,,SKC,0.00,118.00,VWS V14.01,2013-04-29 19:00:00,
2013-04-29 14:05:00,68.6,51.8,29.73,South,180,8.0,15.0,55,0.00,,SKC,0.00,172.00,VWS V14.01,2013-04-29 19:05:00,
2013-04-29 14:10:00,68.3,53.9,29.74,South,171,7.0,15.0,60,0.00,,SKC,0.00,216.00,VWS V14.01,2013-04-29 19:10:00,
2013-04-29 14:15:00,68.3,53.0,29.73,SSW,200,8.0,13.0,58,0.00,,SKC,0.00,216.00,VWS V14.01,2013-04-29 19:15:00,
2013-04-29 14:20:00,68.2,52.4,29.73,South,178,8.0,13.0,57,0.00,,SKC,0.00,172.00,VWS V14.01,2013-04-29 19:20:00,
2013-04-29 14:25:00,68.2,51.9,29.73,SSW,195,15.0,15.0,56,0.00,,SKC,0.00,132.00,VWS V14.01,2013-04-29 19:25:00,
2013-04-29 14:30:00,68.0,52.7,29.74,South,191,10.0,17.0,58,0.00,,SKC,0.00,88.00,VWS V14.01,2013-04-29 19:30:00,
2013-04-29 14:35:00,67.9,53.5,29.74,SSW,203,8.0,13.0,60,0.00,,SKC,0.00,56.00,VWS V14.01,2013-04-29 19:35:00,
2013-04-29 14:40:00,67.8,53.4,29.74,South,190,11.0,16.0,60,0.00,,SKC,0.00,40.00,VWS V14.01,2013-04-29 19:40:00,
2013-04-29 14:45:00,67.5,54.0,29.74,SSW,200,6.0,14.0,62,0.00,,SKC,0.00,35.00,VWS V14.01,2013-04-29 19:45:00,
2013-04-29 14:50:00,66.9,53.9,29.74,South,188,7.0,14.0,63,0.01,,SKC,0.01,32.00,VWS V14.01,2013-04-29 19:50:00,
2013-04-29 14:55:00,66.3,54.2,29.73,South,187,8.0,15.0,65,0.01,,SKC,0.01,35.00,VWS V14.01,2013-04-29 19:55:00,
2013-04-29 15:00:00,65.9,54.7,29.72,SSE,167,5.0,15.0,67,0.02,,SKC,0.02,42.00,VWS V14.01,2013-04-29 20:00:00,
2013-04-29 15:05:00,65.4,55.0,29.70,SSE,166,9.0,14.0,69,0.03,,SKC,0.03,63.00,VWS V14.01,2013-04-29 20:05:00,
2013-04-29 15:10:00,65.0,55.0,29.69,SSE,163,7.0,14.0,70,0.04,,SKC,0.04,93.00,VWS V14.01,2013-04-29 20:10:00,
2013-04-29 15:15:00,64.5,54.5,29.70,South,191,9.0,13.0,70,0.04,,SKC,0.04,113.00,VWS V14.01,2013-04-29 20:15:00,
2013-04-29 15:20:00,64.3,54.7,29.69,South,171,7.0,13.0,71,0.04,,SKC,0.04,162.00,VWS V14.01,2013-04-29 20:20:00,
2013-04-29 15:25:00,64.6,55.0,29.69,SSE,157,9.0,12.0,71,0.04,,SKC,0.04,309.00,VWS V14.01,2013-04-29 20:25:00,
2013-04-29 15:30:00,65.0,55.4,29.69,SSE,165,10.0,13.0,71,0.04,,SKC,0.04,260.00,VWS V14.01,2013-04-29 20:30:00,
2013-04-29 15:35:00,65.4,55.4,29.70,SSW,197,7.0,13.0,70,0.04,,SKC,0.04,171.00,VWS V14.01,2013-04-29 20:35:00,
2013-04-29 15:40:00,65.5,55.1,29.71,SSW,205,10.0,14.0,69,0.04,,SKC,0.04,185.00,VWS V14.01,2013-04-29 20:40:00,
2013-04-29 15:45:00,65.8,55.0,29.71,SSW,201,11.0,14.0,68,0.04,,SKC,0.04,232.00,VWS V14.01,2013-04-29 20:45:00,
2013-04-29 15:50:00,66.0,55.2,29.71,SSW,201,8.0,14.0,68,0.04,,SKC,0.04,251.00,VWS V14.01,2013-04-29 20:50:00,
2013-04-29 15:55:00,66.2,55.3,29.71,South,174,9.0,13.0,68,0.03,,SKC,0.04,246.00,VWS V14.01,2013-04-29 20:55:00,
2013-04-29 16:00:00,66.4,55.1,29.71,South,190,11.0,13.0,67,0.03,,SKC,0.04,244.00,VWS V14.01,2013-04-29 21:00:00,
2013-04-29 16:05:00,66.6,54.1,29.71,South,183,8.0,14.0,64,0.01,,SKC,0.04,223.00,VWS V14.01,2013-04-29 21:05:00,
2013-04-29 16:10:00,66.7,54.6,29.71,South,171,6.0,14.0,65,0.01,,SKC,0.04,116.00,VWS V14.01,2013-04-29 21:10:00,
2013-04-29 16:15:00,66.8,54.2,29.70,South,169,6.0,10.0,64,0.00,,SKC,0.04,90.00,VWS V14.01,2013-04-29 21:15:00,
2013-04-29 16:20:00,66.8,54.7,29.71,South,178,5.0,10.0,65,0.00,,SKC,0.04,62.00,VWS V14.01,2013-04-29 21:20:00,
2013-04-29 16:25:00,66.8,54.7,29.70,South,169,6.0,10.0,65,0.00,,SKC,0.04,47.00,VWS V14.01,2013-04-29 21:25:00,
2013-04-29 16:30:00,66.7,54.6,29.71,South,172,6.0,10.0,65,0.00,,SKC,0.04,81.00,VWS V14.01,2013-04-29 21:30:00,
2013-04-29 16:35:00,66.8,54.2,29.70,SSE,165,6.0,8.0,64,0.00,,SKC,0.04,151.00,VWS V14.01,2013-04-29 21:35:00,
2013-04-29 16:40:00,67.2,54.2,29.70,South,172,5.0,5.0,63,0.00,,SKC,0.04,128.00,VWS V14.01,2013-04-29 21:40:00,
2013-04-29 16:45:00,67.4,53.9,29.70,SSE,148,7.0,11.0,62,0.00,,SKC,0.04,276.00,VWS V14.01,2013-04-29 21:45:00,
2013-04-29 16:50:00,67.9,54.4,29.70,SSE,151,8.0,8.0,62,0.00,,SKC,0.04,248.00,VWS V14.01,2013-04-29 21:50:00,
2013-04-29 16:55:00,68.2,53.8,29.70,South,171,4.0,12.0,60,0.00,,SKC,0.04,225.00,VWS V14.01,2013-04-29 21:55:00,
2013-04-29 17:00:00,68.4,53.5,29.69,SE,140,9.0,12.0,59,0.00,,SKC,0.04,501.00,VWS V14.01,2013-04-29 22:00:00,
2013-04-29 17:05:00,68.6,52.8,29.69,SE,145,9.0,13.0,57,0.00,,SKC,0.04,234.00,VWS V14.01,2013-04-29 22:05:00,
2013-04-29 17:10:00,68.6,53.2,29.69,SSE,165,7.0,13.0,58,0.00,,SKC,0.04,323.00,VWS V14.01,2013-04-29 22:10:00,
2013-04-29 17:15:00,68.6,53.2,29.69,SSE,155,4.0,11.0,58,0.00,,SKC,0.04,220.00,VWS V14.01,2013-04-29 22:15:00,
2013-04-29 17:20:00,68.8,53.4,29.69,SSE,151,5.0,8.0,58,0.00,,SKC,0.04,353.00,VWS V14.01,2013-04-29 22:20:00,
2013-04-29 17:25:00,69.0,53.6,29.68,SE,128,7.0,11.0,58,0.00,,SKC,0.04,367.00,VWS V14.01,2013-04-29 22:25:00,
2013-04-29 17:30:00,69.2,53.3,29.68,SSE,149,9.0,9.0,57,0.00,,SKC,0.04,364.00,VWS V14.01,2013-04-29 22:30:00,
2013-04-29 17:35:00,69.2,53.3,29.68,SE,146,7.0,11.0,57,0.00,,SKC,0.04,292.00,VWS V14.01,2013-04-29 22:35:00,
2013-04-29 17:40:00,69.3,53.4,29.68,SE,142,5.0,5.0,57,0.00,,SKC,0.04,199.00,VWS V14.01,2013-04-29 22:40:00,
2013-04-29 17:45:00,69.4,53.5,29.68,SSE,153,7.0,9.0,57,0.00,,SKC,0.04,213.00,VWS V14.01,2013-04-29 22:45:00,
2013-04-29 17:50:00,69.5,54.1,29.68,SSE,150,7.0,7.0,58,0.00,,SKC,0.04,309.00,VWS V14.01,2013-04-29 22:50:00,
2013-04-29 17:55:00,69.7,53.8,29.68,SE,143,9.0,17.0,57,0.00,,SKC,0.04,301.00,VWS V14.01,2013-04-29 22:55:00,
2013-04-29 18:00:00,69.9,53.5,29.68,SE,144,7.0,17.0,56,0.00,,SKC,0.04,323.00,VWS V14.01,2013-04-29 23:00:00,
2013-04-29 18:05:00,70.1,53.2,29.68,SE,141,12.0,14.0,55,0.00,,SKC,0.04,360.00,VWS V14.01,2013-04-29 23:05:00,
2013-04-29 18:10:00,70.2,53.3,29.67,South,177,7.0,9.0,55,0.00,,SKC,0.04,306.00,VWS V14.01,2013-04-29 23:10:00,
2013-04-29 18:15:00,70.2,53.3,29.67,SE,140,7.0,14.0,55,0.00,,SKC,0.04,255.00,VWS V14.01,2013-04-29 23:15:00,
2013-04-29 18:20:00,70.2,52.8,29.67,SE,144,10.0,14.0,54,0.00,,SKC,0.04,209.00,VWS V14.01,2013-04-29 23:20:00,
2013-04-29 18:25:00,70.0,53.1,29.67,SE,134,9.0,19.0,55,0.00,,SKC,0.04,93.00,VWS V14.01,2013-04-29 23:25:00,
2013-04-29 18:30:00,69.8,53.4,29.67,SE,125,8.0,8.0,56,0.00,,SKC,0.04,83.00,VWS V14.01,2013-04-29 23:30:00,
2013-04-29 18:35:00,69.4,54.0,29.67,ESE,107,11.0,14.0,58,0.00,,SKC,0.04,169.00,VWS V14.01,2013-04-29 23:35:00,
2013-04-29 18:40:00,68.8,53.9,29.67,ESE,122,9.0,9.0,59,0.00,,SKC,0.04,100.00,VWS V14.01,2013-04-29 23:40:00,
2013-04-29 18:45:00,68.3,53.9,29.67,ESE,119,7.0,13.0,60,0.00,,SKC,0.04,86.00,VWS V14.01,2013-04-29 23:45:00,
2013-04-29 18:50:00,68.0,54.1,29.67,ESE,113,4.0,6.0,61,0.00,,SKC,0.04,62.00,VWS V14.01,2013-04-29 23:50:00,
2013-04-29 18:55:00,67.7,53.8,29.67,ESE,117,6.0,12.0,61,0.00,,SKC,0.04,62.00,VWS V14.01,2013-04-29 23:55:00,
2013-04-29 19:00:00,67.5,54.0,29.67,ESE,115,6.0,12.0,62,0.00,,SKC,0.04,93.00,VWS V14.01,2013-04-30 00:00:00,
2013-04-29 19:05:00,67.4,53.9,29.68,ESE,119,4.0,8.0,62,0.00,,SKC,0.04,53.00,VWS V14.01,2013-04-30 00:05:00,
2013-04-29 19:10:00,67.4,53.9,29.68,ESE,121,5.0,5.0,62,0.00,,SKC,0.04,65.00,VWS V14.01,2013-04-30 00:10:00,
2013-04-29 19:15:00,67.3,54.3,29.68,ESE,117,4.0,8.0,63,0.00,,SKC,0.04,58.00,VWS V14.01,2013-04-30 00:15:00,
2013-04-29 19:20:00,67.3,54.3,29.68,ESE,117,5.0,6.0,63,0.00,,SKC,0.04,47.00,VWS V14.01,2013-04-30 00:20:00,
2013-04-29 19:26:00,67.2,54.2,29.68,ESE,117,4.0,6.0,63,0.00,,SKC,0.04,35.00,VWS V14.01,2013-04-30 00:26:00,
2013-04-29 19:31:00,67.1,54.1,29.69,ESE,118,5.0,5.0,63,0.00,,SKC,0.04,30.00,VWS V14.01,2013-04-30 00:31:00,
2013-04-29 19:36:00,66.9,53.9,29.68,ESE,117,5.0,7.0,63,0.00,,SKC,0.04,25.00,VWS V14.01,2013-04-30 00:36:00,
2013-04-29 19:41:00,66.7,53.7,29.68,ESE,118,4.0,8.0,63,0.00,,SKC,0.04,12.00,VWS V14.01,2013-04-30 00:41:00,
2013-04-29 19:46:00,66.4,53.9,29.68,ESE,118,4.0,8.0,64,0.00,,SKC,0.04,5.00,VWS V14.01,2013-04-30 00:46:00,
2013-04-29 19:51:00,66.1,53.6,29.68,ESE,118,4.0,5.0,64,0.00,,SKC,0.04,0.00,VWS V14.01,2013-04-30 00:51:00,
2013-04-29 19:56:00,65.9,53.8,29.69,ESE,118,5.0,6.0,65,0.00,,SKC,0.04,0.00,VWS V14.01,2013-04-30 00:56:00,
2013-04-29 20:01:00,65.6,53.5,29.69,ESE,118,5.0,5.0,65,0.00,,SKC,0.04,0.00,VWS V14.01,2013-04-30 01:01:00,
2013-04-29 20:06:00,65.4,53.3,29.69,ESE,118,2.0,7.0,65,0.00,,SKC,0.04,0.00,VWS V14.01,2013-04-30 01:06:00,
2013-04-29 20:11:00,65.1,53.5,29.69,ESE,118,4.0,5.0,66,0.00,,SKC,0.04,0.00,VWS V14.01,2013-04-30 01:11:00,
2013-04-29 20:16:00,64.9,53.3,29.69,ESE,118,4.0,5.0,66,0.00,,SKC,0.04,0.00,VWS V14.01,2013-04-30 01:16:00,
2013-04-29 20:21:00,64.7,53.5,29.69,ESE,118,5.0,5.0,67,0.00,,SKC,0.04,0.00,VWS V14.01,2013-04-30 01:21:00,
2013-04-29 20:26:00,64.4,53.2,29.69,ESE,117,2.0,7.0,67,0.00,,SKC,0.04,0.00,VWS V14.01,2013-04-30 01:26:00,
2013-04-29 20:31:00,64.4,53.2,29.69,ESE,117,2.0,5.0,67,0.00,,SKC,0.04,0.00,VWS V14.01,2013-04-30 01:31:00,
2013-04-29 20:36:00,64.2,53.4,29.69,ESE,117,2.0,5.0,68,0.00,,SKC,0.04,0.00,VWS V14.01,2013-04-30 01:36:00,
2013-04-29 20:41:00,64.0,53.2,29.69,ESE,117,4.0,5.0,68,0.00,,SKC,0.04,0.00,VWS V14.01,2013-04-30 01:41:00,
2013-04-29 20:46:00,63.9,53.1,29.69,ESE,117,2.0,6.0,68,0.00,,SKC,0.04,0.00,VWS V14.01,2013-04-30 01:46:00,
2013-04-29 20:51:00,63.8,53.0,29.70,ESE,117,2.0,2.0,68,0.00,,SKC,0.04,0.00,VWS V14.01,2013-04-30 01:51:00,
2013-04-29 20:56:00,63.7,53.3,29.69,ESE,117,0.0,4.0,69,0.00,,SKC,0.04,0.00,VWS V14.01,2013-04-30 01:56:00,
2013-04-29 21:01:00,63.5,53.2,29.70,ESE,117,2.0,4.0,69,0.00,,SKC,0.04,0.00,VWS V14.01,2013-04-30 02:01:00,
2013-04-29 21:06:00,63.4,53.1,29.70,ESE,117,0.0,4.0,69,0.00,,SKC,0.04,0.00,VWS V14.01,2013-04-30 02:06:00,
2013-04-29 21:11:00,63.2,52.9,29.70,ESE,117,0.0,0.0,69,0.00,,SKC,0.04,0.00,VWS V14.01,2013-04-30 02:11:00,
2013-04-29 21:16:00,63.1,53.2,29.70,ESE,117,0.0,1.0,70,0.00,,SKC,0.04,0.00,VWS V14.01,2013-04-30 02:16:00,
2013-04-29 21:21:00,62.9,53.0,29.70,ESE,117,0.0,2.0,70,0.00,,SKC,0.04,0.00,VWS V14.01,2013-04-30 02:21:00,
2013-04-29 21:26:00,62.7,53.2,29.70,ESE,117,0.0,2.0,71,0.00,,SKC,0.04,0.00,VWS V14.01,2013-04-30 02:26:00,
2013-04-29 21:31:00,62.4,52.9,29.70,ESE,117,0.0,0.0,71,0.00,,SKC,0.04,0.00,VWS V14.01,2013-04-30 02:31:00,
2013-04-29 21:36:00,62.3,52.8,29.70,ESE,117,1.0,1.0,71,0.00,,SKC,0.04,0.00,VWS V14.01,2013-04-30 02:36:00,
2013-04-29 21:41:00,62.3,53.2,29.70,ESE,117,0.0,0.0,72,0.00,,SKC,0.04,0.00,VWS V14.01,2013-04-30 02:41:00,
2013-04-29 21:46:00,62.1,53.0,29.70,ESE,117,2.0,4.0,72,0.00,,SKC,0.04,0.00,VWS V14.01,2013-04-30 02:46:00,
2013-04-29 21:51:00,62.0,52.9,29.70,ESE,117,0.0,0.0,72,0.00,,SKC,0.04,0.00,VWS V14.01,2013-04-30 02:51:00,
2013-04-29 21:56:00,61.8,53.1,29.70,ESE,117,0.0,1.0,73,0.00,,SKC,0.04,0.00,VWS V14.01,2013-04-30 02:56:00,
2013-04-29 22:01:00,61.8,53.4,29.70,ESE,117,4.0,4.0,74,0.00,,SKC,0.04,0.00,VWS V14.01,2013-04-30 03:01:00,
2013-04-29 22:06:00,62.1,53.7,29.69,SE,126,6.0,7.0,74,0.00,,SKC,0.04,0.00,VWS V14.01,2013-04-30 03:06:00,
2013-04-29 22:11:00,62.6,54.2,29.69,SE,141,4.0,6.0,74,0.00,,SKC,0.04,0.00,VWS V14.01,2013-04-30 03:11:00,
2013-04-29 22:16:00,62.8,54.0,29.69,SE,142,4.0,6.0,73,0.00,,SKC,0.04,0.00,VWS V14.01,2013-04-30 03:16:00,
2013-04-29 22:21:00,62.8,54.0,29.69,SE,142,5.0,6.0,73,0.00,,SKC,0.04,0.00,VWS V14.01,2013-04-30 03:21:00,
2013-04-29 22:26:00,62.9,54.5,29.69,SE,144,4.0,6.0,74,0.00,,SKC,0.04,0.00,VWS V14.01,2013-04-30 03:26:00,
2013-04-29 22:31:00,63.2,54.8,29.69,SSE,164,6.0,8.0,74,0.00,,SKC,0.04,0.00,VWS V14.01,2013-04-30 03:31:00,
2013-04-29 22:36:00,63.6,55.2,29.69,South,169,7.0,9.0,74,0.00,,SKC,0.04,0.00,VWS V14.01,2013-04-30 03:36:00,
2013-04-29 22:41:00,64.0,55.2,29.69,SSE,166,8.0,9.0,73,0.00,,SKC,0.04,0.00,VWS V14.01,2013-04-30 03:41:00,
2013-04-29 22:46:00,64.2,55.8,29.69,South,175,6.0,11.0,74,0.00,,SKC,0.04,0.00,VWS V14.01,2013-04-30 03:46:00,
2013-04-29 22:51:00,64.2,55.8,29.69,SSE,168,6.0,9.0,74,0.00,,SKC,0.04,0.00,VWS V14.01,2013-04-30 03:51:00,
2013-04-29 22:56:00,64.3,55.5,29.69,SSE,161,5.0,11.0,73,0.00,,SKC,0.04,0.00,VWS V14.01,2013-04-30 03:56:00,
2013-04-29 23:01:00,64.4,55.6,29.69,SSE,160,7.0,8.0,73,0.00,,SKC,0.04,0.00,VWS V14.01,2013-04-30 04:01:00,
2013-04-29 23:06:00,64.4,55.9,29.68,SSE,157,9.0,11.0,74,0.00,,SKC,0.04,0.00,VWS V14.01,2013-04-30 04:06:00,
2013-04-29 23:11:00,64.5,56.0,29.68,South,169,8.0,10.0,74,0.00,,SKC,0.04,0.00,VWS V14.01,2013-04-30 04:11:00,
2013-04-29 23:16:00,64.5,56.0,29.68,SSE,158,6.0,15.0,74,0.00,,SKC,0.04,0.00,VWS V14.01,2013-04-30 04:16:00,
2013-04-29 23:21:00,64.5,56.0,29.68,SSE,165,7.0,8.0,74,0.00,,SKC,0.04,0.00,VWS V14.01,2013-04-30 04:21:00,
2013-04-29 23:26:00,64.6,56.5,29.67,SSE,159,7.0,12.0,75,0.00,,SKC,0.04,0.00,VWS V14.01,2013-04-30 04:26:00,
2013-04-29 23:31:00,64.5,56.4,29.67,SSE,162,6.0,10.0,75,0.00,,SKC,0.04,0.00,VWS V14.01,2013-04-30 04:31:00,
2013-04-29 23:36:00,64.5,56.4,29.67,SSE,155,7.0,11.0,75,0.00,,SKC,0.04,0.00,VWS V14.01,2013-04-30 04:36:00,
2013-04-29 23:41:00,64.5,56.4,29.67,SSE,163,5.0,10.0,75,0.00,,SKC,0.04,0.00,VWS V14.01,2013-04-30 04:41:00,
2013-04-29 23:46:00,64.5,56.4,29.68,South,182,3.0,10.0,75,0.00,,SKC,0.04,0.00,VWS V14.01,2013-04-30 04:46:00,
2013-04-29 23:51:00,64.6,56.5,29.69,South,189,6.0,7.0,75,0.00,,SKC,0.04,0.00,VWS V14.01,2013-04-30 04:51:00,
2013-04-29 23:56:00,64.5,56.4,29.69,SSW,204,7.0,9.0,75,0.00,,SKC,0.04,0.00,VWS V14.01,2013-04-30 04:56:00,